This is the latest recevied weather packets stored in our database for station/object SV4JYD-13. If no packets are shown the sender has not sent any weather packets the latest 10 day(s).
| Time | Temp. | Humidity | Pressure | Rain* | Wind** | Luminosity | Snow |
|---|---|---|---|---|---|---|---|
| 1777253166 | 13.89° C | 84% | 1017 hPa | 0 mm | - | - | - |
| 1777252266 | 13.89° C | 87% | 1017 hPa | 0 mm | - | - | - |
| 1777251366 | 14.44° C | 83% | 1017 hPa | 0 mm | - | - | - |
| 1777250465 | 14.44° C | 84% | 1017 hPa | 0 mm | - | - | - |
| 1777249565 | 13.33° C | 10% | - | 0 mm | - | - | - |
| 1777248665 | 13.33° C | 10% | - | 0 mm | - | - | - |
| 1777247765 | 13.89° C | 78% | 1017 hPa | 0 mm | - | - | - |
| 1777246864 | 13.33° C | 10% | - | 0 mm | - | - | - |
| 1777245964 | 14.44° C | 87% | 1017 hPa | 0 mm | - | - | - |
| 1777245064 | 15° C | 83% | 1017 hPa | 0 mm | - | - | - |
| 1777244163 | 15° C | 80% | 1017 hPa | 0 mm | - | - | - |
| 1777243263 | 15° C | 80% | 1017 hPa | 0 mm | - | - | - |
| 1777242363 | 18.33° C | 10% | - | 0 mm | - | - | - |
| 1777241463 | 18.89° C | 10% | - | 0 mm | - | - | - |
| 1777240563 | 15° C | 86% | 1017 hPa | 0 mm | - | - | - |
| 1777239662 | 15.56° C | 83% | 1017 hPa | 0 mm | - | - | - |
| 1777238762 | 15.56° C | 82% | 1016 hPa | 0 mm | - | - | - |
| 1777237862 | 15° C | 83% | 1016 hPa | 0 mm | - | - | - |
| 1777236962 | 16.11° C | 78% | 1016 hPa | 0 mm | - | - | - |
| 1777236061 | 16.11° C | 78% | 1016 hPa | 0 mm | - | - | - |
| 1777235161 | 16.11° C | 78% | 1015 hPa | 0 mm | - | - | - |
| 1777234261 | 16.11° C | 79% | 1015 hPa | 0 mm | - | - | - |
| 1777233361 | 16.67° C | 75% | 1016 hPa | 0 mm | - | - | - |
| 1777232461 | 17.78° C | 70% | 1016 hPa | 0 mm | - | - | - |
| 1777231560 | 17.78° C | 70% | 1015 hPa | 0 mm | - | - | - |
* Rain latest hour (hover to see other rain measurements)
** Current wind speed in m/s (hover to see current wind gust speed)